"SCLK","SCET","ORBIT_NUMBER","ALTITUDE","LATITUDE_PLANEOGRAPHIC","LATITUDE_PLANETOCENTRIC","LOCAL_TRUE_SOLAR_TIME","WEST_LONGITUDE","X_SUN_DIR_DISTANCE","RHO_PRP_SUN_DISTANCE","SOLAR_ZENITH_ANGLE","ELECTRON_PLASMA_FREQUENCY","FPE_QUALITY","FPP_VERIFICATION","ELECTRON_PLASMA_DENSITY","ELECTRON_CYCLOTRON_PERIOD","FCP_QUALITY","B_MAGNITUDE"
"1/0364413949.61770",2014-11-18T18:05:53.841,13812,1567.00,47.69,47.42,"09:04:17",126.21,-1.070,0.990,137.33,1.25e+02,2,,1.94e+02,,,
"1/0364413957.31820",2014-11-18T18:06:01.384,13812,1556.00,47.97,47.70,"09:06:42",126.20,-1.070,0.990,137.20,1.23e+02,2,,1.88e+02,,,
"1/0364413965.01936",2014-11-18T18:06:08.928,13812,1546.00,48.25,47.99,"09:06:49",126.20,-1.060,0.990,137.06,1.26e+02,2,,1.97e+02,4.64e+00,1,7.69e+00
"1/0364413972.37522",2014-11-18T18:06:16.471,13812,1535.00,48.54,48.27,"09:06:56",126.20,-1.060,0.990,136.91,1.25e+02,2,,1.94e+02,4.67e+00,1,7.65e+00
"1/0364413980.07572",2014-11-18T18:06:24.014,13812,1524.00,48.82,48.55,"09:09:21",126.19,-1.050,0.990,136.77,1.28e+02,2,,2.03e+02,,,
"1/0364413987.43158",2014-11-18T18:06:31.557,13812,1513.00,49.11,48.84,"09:09:28",126.19,-1.050,0.990,136.63,1.28e+02,2,,2.03e+02,4.72e+00,1,7.57e+00
"1/0364413995.13208",2014-11-18T18:06:39.100,13812,1503.00,49.39,49.13,"09:11:53",126.18,-1.050,0.990,136.48,1.30e+02,2,,2.10e+02,,,
"1/0364414002.48860",2014-11-18T18:06:46.644,13812,1492.00,49.68,49.41,"09:12:01",126.18,-1.040,0.990,136.33,1.34e+02,2,,2.23e+02,,,
"1/0364414010.18910",2014-11-18T18:06:54.187,13812,1481.00,49.97,49.70,"09:14:25",126.17,-1.040,0.990,136.18,1.31e+02,2,,2.13e+02,4.73e+00,1,7.55e+00
"1/0364414017.54496",2014-11-18T18:07:01.730,13812,1470.00,50.26,49.99,"09:16:50",126.16,-1.030,0.990,136.03,1.30e+02,2,,2.10e+02,,,
"1/0364414025.24546",2014-11-18T18:07:09.273,13812,1460.00,50.55,50.28,"09:16:58",126.16,-1.030,0.990,135.87,1.33e+02,2,,2.19e+02,,,
"1/0364414032.60132",2014-11-18T18:07:16.816,13812,1449.00,50.85,50.58,"09:19:22",126.15,-1.020,0.990,135.72,1.29e+02,2,,2.06e+02,4.56e+00,1,7.84e+00
"1/0364414040.30247",2014-11-18T18:07:24.360,13812,1439.00,51.14,50.87,"09:21:47",126.14,-1.020,0.990,135.56,1.29e+02,2,,2.06e+02,4.54e+00,1,7.86e+00
"1/0364414048.00297",2014-11-18T18:07:31.903,13812,1428.00,51.44,51.17,"09:24:12",126.13,-1.010,0.990,135.40,1.25e+02,2,,1.94e+02,4.41e+00,1,8.11e+00
"1/0364414055.35883",2014-11-18T18:07:39.446,13812,1418.00,51.73,51.46,"09:26:37",126.12,-1.010,0.990,135.24,1.21e+02,2,,1.82e+02,4.33e+00,1,8.25e+00
"1/0364414063.05933",2014-11-18T18:07:46.989,13812,1407.00,52.03,51.76,"09:29:02",126.11,-1.000,0.990,135.08,1.25e+02,2,,1.94e+02,4.36e+00,1,8.20e+00
"1/0364414070.41519",2014-11-18T18:07:54.532,13812,1397.00,52.33,52.06,"09:33:44",126.09,-1.000,0.990,134.91,1.19e+02,2,,1.76e+02,4.23e+00,1,8.44e+00
"1/0364414078.11635",2014-11-18T18:08:02.076,13812,1386.00,52.63,52.36,"09:36:09",126.08,-0.990,0.990,134.75,1.18e+02,2,,1.73e+02,,,
"1/0364414085.47221",2014-11-18T18:08:09.619,13812,1376.00,52.93,52.66,"09:38:34",126.07,-0.990,1.000,134.58,1.20e+02,2,,1.79e+02,,,
"1/0364414093.17271",2014-11-18T18:08:17.162,13812,1365.00,53.24,52.97,"09:43:16",126.05,-0.980,1.000,134.41,1.20e+02,2,,1.79e+02,4.17e+00,1,8.57e+00
"1/0364414100.52857",2014-11-18T18:08:24.705,13812,1355.00,53.54,53.27,"09:45:41",126.04,-0.980,1.000,134.24,1.17e+02,2,,1.70e+02,,,
"1/0364414108.22907",2014-11-18T18:08:32.248,13812,1344.00,53.85,53.58,"09:50:23",126.02,-0.970,1.000,134.06,1.08e+02,2,,1.45e+02,,,
"1/0364414115.58559",2014-11-18T18:08:39.792,13812,1334.00,54.15,53.89,"09:55:06",126.00,-0.960,1.000,133.89,1.02e+02,2,,1.29e+02,3.73e+00,1,9.57e+00
"1/0364414123.28609",2014-11-18T18:08:47.335,13812,1324.00,54.46,54.19,"09:57:31",125.99,-0.960,1.000,133.71,1.08e+02,2,,1.45e+02,,,
"1/0364414130.64195",2014-11-18T18:08:54.878,13812,1314.00,54.77,54.50,"10:02:13",125.97,-0.950,1.000,133.53,1.17e+02,2,,1.70e+02,3.67e+00,1,9.74e+00
"1/0364414138.34245",2014-11-18T18:09:02.421,13812,1303.00,55.08,54.82,"10:06:55",125.95,-0.950,1.000,133.35,1.25e+02,2,,1.94e+02,3.68e+00,1,9.71e+00
"1/0364414146.04295",2014-11-18T18:09:09.964,13812,1293.00,55.39,55.13,"10:11:38",125.93,-0.940,1.000,133.17,1.25e+02,2,,1.94e+02,3.78e+00,1,9.45e+00
"1/0364414153.39946",2014-11-18T18:09:17.508,13812,1283.00,55.71,55.44,"10:16:20",125.91,-0.940,1.000,132.98,1.23e+02,2,,1.88e+02,3.64e+00,1,9.81e+00
"1/0364414161.09996",2014-11-18T18:09:25.051,13812,1273.00,56.02,55.76,"10:23:20",125.88,-0.930,1.000,132.79,1.28e+02,2,,2.03e+02,3.71e+00,1,9.64e+00
"1/0364414168.45582",2014-11-18T18:09:32.594,13812,1263.00,56.34,56.08,"10:28:02",125.86,-0.930,1.000,132.61,1.29e+02,2,,2.06e+02,3.69e+00,1,9.67e+00
"1/0364414176.15632",2014-11-18T18:09:40.137,13812,1253.00,56.66,56.39,"10:35:02",125.83,-0.920,1.000,132.42,1.27e+02,2,,2.00e+02,3.60e+00,1,9.91e+00
"1/0364414183.51218",2014-11-18T18:09:47.680,13812,1243.00,56.98,56.71,"10:39:45",125.81,-0.920,1.010,132.22,1.23e+02,2,,1.88e+02,3.57e+00,1,1.00e+01
"1/0364414191.21334",2014-11-18T18:09:55.224,13812,1232.00,57.30,57.03,"10:46:44",125.78,-0.910,1.010,132.03,1.23e+02,2,,1.88e+02,3.48e+00,1,1.03e+01
"1/0364414198.56920",2014-11-18T18:10:02.767,13812,1222.00,57.62,57.36,"10:53:44",125.75,-0.910,1.010,131.83,1.15e+02,2,,1.64e+02,3.47e+00,2,1.03e+01
"1/0364414206.26970",2014-11-18T18:10:10.310,13812,1213.00,57.94,57.68,"11:00:44",125.72,-0.900,1.010,131.63,1.12e+02,2,,1.56e+02,3.39e+00,2,1.05e+01
"1/0364414213.62556",2014-11-18T18:10:17.853,13812,1203.00,58.26,58.01,"11:07:44",125.69,-0.900,1.010,131.43,1.10e+02,2,,1.50e+02,3.50e+00,1,1.02e+01
"1/0364414221.32606",2014-11-18T18:10:25.396,13812,1193.00,58.59,58.33,"11:17:01",125.65,-0.890,1.010,131.23,1.11e+02,2,,1.53e+02,3.49e+00,1,1.02e+01
"1/0364414229.02722",2014-11-18T18:10:32.940,13812,1183.00,58.92,58.66,"11:24:01",125.62,-0.880,1.010,131.03,1.17e+02,2,,1.70e+02,3.55e+00,1,1.00e+01
"1/0364414236.38308",2014-11-18T18:10:40.483,13812,1173.00,59.25,58.99,"11:33:19",125.58,-0.880,1.010,130.82,1.18e+02,2,,1.73e+02,3.53e+00,1,1.01e+01
"1/0364414244.08358",2014-11-18T18:10:48.026,13812,1163.00,59.58,59.32,"11:40:19",125.55,-0.870,1.010,130.62,1.14e+02,2,,1.61e+02,3.71e+00,1,9.64e+00
"1/0364414251.43944",2014-11-18T18:10:55.569,13812,1153.00,59.91,59.65,"11:49:36",125.51,-0.870,1.010,130.41,1.14e+02,2,,1.61e+02,,,
"1/0364414259.14059",2014-11-18T18:11:03.113,13812,1144.00,60.24,59.99,"11:58:53",125.47,-0.860,1.020,130.20,1.13e+02,2,,1.58e+02,,,
"1/0364414266.49645",2014-11-18T18:11:10.656,13812,1134.00,60.57,60.32,"12:10:28",125.42,-0.860,1.020,129.98,1.17e+02,2,,1.70e+02,3.69e+00,1,9.67e+00
"1/0364414274.19695",2014-11-18T18:11:18.199,13812,1124.00,60.91,60.66,"12:19:46",125.38,-0.850,1.020,129.77,1.13e+02,2,,1.58e+02,3.58e+00,1,9.98e+00
"1/0364414281.55281",2014-11-18T18:11:25.742,13812,1115.00,61.24,61.00,"12:31:20",125.33,-0.840,1.020,129.55,1.12e+02,2,,1.56e+02,3.54e+00,1,1.01e+01
"1/0364414289.25331",2014-11-18T18:11:33.285,13812,1105.00,61.58,61.33,"12:42:55",125.28,-0.840,1.020,129.33,1.13e+02,2,,1.58e+02,3.67e+00,1,9.74e+00
"1/0364414296.60983",2014-11-18T18:11:40.829,13812,1096.00,61.92,61.68,"12:54:30",125.23,-0.830,1.020,129.11,1.12e+02,2,,1.56e+02,3.67e+00,1,9.74e+00
"1/0364414304.31033",2014-11-18T18:11:48.372,13812,1086.00,62.26,62.02,"13:06:05",125.18,-0.830,1.020,128.89,1.12e+02,2,,1.56e+02,3.71e+00,1,9.64e+00
"1/0364414312.01083",2014-11-18T18:11:55.915,13812,1077.00,62.60,62.36,"13:19:58",125.12,-0.820,1.020,128.67,1.13e+02,2,,1.58e+02,,,
"1/0364414319.36669",2014-11-18T18:12:03.458,13812,1067.00,62.95,62.71,"13:31:32",125.07,-0.820,1.020,128.44,1.12e+02,2,,1.56e+02,3.59e+00,1,9.94e+00
"1/0364414327.06719",2014-11-18T18:12:11.001,13812,1058.00,63.29,63.05,"13:45:25",125.01,-0.810,1.020,128.21,1.07e+02,2,,1.42e+02,3.58e+00,1,9.98e+00
"1/0364414334.42371",2014-11-18T18:12:18.545,13812,1049.00,63.64,63.40,"14:01:35",124.94,-0.800,1.030,127.98,1.07e+02,2,,1.42e+02,3.52e+00,1,1.02e+01
"1/0364414342.12421",2014-11-18T18:12:26.088,13812,1039.00,63.99,63.75,"14:15:27",124.88,-0.800,1.030,127.75,1.09e+02,2,,1.47e+02,3.47e+00,1,1.03e+01
"1/0364414349.48007",2014-11-18T18:12:33.631,13812,1030.00,64.33,64.10,"14:31:37",124.81,-0.790,1.030,127.52,1.07e+02,2,,1.42e+02,3.39e+00,1,1.05e+01
"1/0364414357.18057",2014-11-18T18:12:41.174,13812,1021.00,64.68,64.45,"14:47:47",124.74,-0.790,1.030,127.28,1.05e+02,2,,1.37e+02,3.47e+00,1,1.03e+01
"1/0364414364.53643",2014-11-18T18:12:48.717,13812,1012.00,65.04,64.80,"15:06:14",124.66,-0.780,1.030,127.04,1.10e+02,2,,1.50e+02,3.38e+00,1,1.06e+01
"1/0364414372.23758",2014-11-18T18:12:56.261,13812,1003.00,65.39,65.16,"15:22:24",124.59,-0.770,1.030,126.80,1.10e+02,2,,1.50e+02,3.43e+00,1,1.04e+01
"1/0364414379.59344",2014-11-18T18:13:03.804,13812,994.00,65.74,65.52,"15:40:52",124.51,-0.770,1.030,126.56,1.12e+02,2,,1.56e+02,3.43e+00,1,1.04e+01
"1/0364414387.29394",2014-11-18T18:13:11.347,13812,984.00,66.10,65.87,"16:01:37",124.42,-0.760,1.030,126.32,1.17e+02,2,,1.70e+02,3.48e+00,1,1.03e+01
"1/0364414394.64980",2014-11-18T18:13:18.890,13812,975.00,66.46,66.23,"16:22:22",124.33,-0.760,1.030,126.07,1.20e+02,2,,1.79e+02,3.47e+00,1,1.03e+01
"1/0364414402.35030",2014-11-18T18:13:26.433,13812,967.00,66.81,66.59,"16:43:06",124.24,-0.750,1.040,125.83,1.24e+02,2,,1.91e+02,3.50e+00,1,1.02e+01
"1/0364414410.05146",2014-11-18T18:13:33.977,13812,958.00,67.17,66.95,"17:03:51",124.15,-0.740,1.040,125.58,1.24e+02,2,,1.91e+02,,,
"1/0364414417.40732",2014-11-18T18:13:41.520,13812,949.00,67.53,67.32,"17:29:11",124.04,-0.740,1.040,125.33,1.22e+02,2,,1.85e+02,,,
"1/0364414425.10782",2014-11-18T18:13:49.063,13812,940.00,67.90,67.68,"17:52:14",123.94,-0.730,1.040,125.08,1.25e+02,2,,1.94e+02,3.40e+00,1,1.05e+01
"1/0364414432.46368",2014-11-18T18:13:56.606,13812,931.00,68.26,68.05,"18:17:34",123.83,-0.730,1.040,124.82,1.27e+02,2,,2.00e+02,3.32e+00,1,1.07e+01
"1/0364414440.16418",2014-11-18T18:14:04.149,13812,923.00,68.63,68.42,"18:45:11",123.71,-0.720,1.040,124.56,1.27e+02,2,,2.00e+02,3.29e+00,1,1.09e+01
"1/0364414447.52070",2014-11-18T18:14:11.693,13812,914.00,68.99,68.78,"19:12:49",123.59,-0.710,1.040,124.31,1.28e+02,2,,2.03e+02,3.33e+00,1,1.07e+01
"1/0364414455.22120",2014-11-18T18:14:19.236,13812,905.00,69.36,69.15,"19:40:26",123.47,-0.710,1.040,124.05,1.30e+02,2,,2.10e+02,3.30e+00,1,1.08e+01
"1/0364414462.57706",2014-11-18T18:14:26.779,13812,897.00,69.73,69.53,"20:12:39",123.33,-0.700,1.040,123.78,1.31e+02,2,,2.13e+02,3.19e+00,2,1.12e+01
"1/0364414470.27756",2014-11-18T18:14:34.322,13812,888.00,70.10,69.90,"20:42:34",123.20,-0.700,1.050,123.52,1.30e+02,2,,2.10e+02,3.18e+00,1,1.12e+01
"1/0364414477.63342",2014-11-18T18:14:41.865,13812,880.00,70.47,70.27,"21:17:04",123.05,-0.690,1.050,123.26,1.30e+02,2,,2.10e+02,3.15e+00,1,1.13e+01
"1/0364414485.33457",2014-11-18T18:14:49.409,13812,871.00,70.84,70.65,"21:51:33",122.90,-0.680,1.050,122.99,1.30e+02,2,,2.10e+02,3.22e+00,1,1.11e+01
"1/0364414493.03507",2014-11-18T18:14:56.952,13812,863.00,71.22,71.03,"22:28:21",122.74,-0.680,1.050,122.72,1.30e+02,2,,2.10e+02,3.12e+00,1,1.15e+01
"1/0364414500.39093",2014-11-18T18:15:04.495,13812,855.00,71.59,71.40,"23:07:26",122.57,-0.670,1.050,122.45,1.31e+02,2,,2.13e+02,3.15e+00,2,1.13e+01
"1/0364414508.09143",2014-11-18T18:15:12.038,13812,846.00,71.97,71.78,"23:48:49",122.39,-0.660,1.050,122.17,1.29e+02,2,,2.06e+02,3.19e+00,1,1.12e+01
"1/0364414515.44730",2014-11-18T18:15:19.581,13812,838.00,72.35,72.16,"00:32:29",122.20,-0.660,1.050,121.90,1.29e+02,2,,2.06e+02,3.13e+00,1,1.14e+01
"1/0364414523.14845",2014-11-18T18:15:27.125,13812,830.00,72.72,72.54,"01:18:26",122.00,-0.650,1.050,121.62,1.31e+02,2,,2.13e+02,3.12e+00,1,1.14e+01
"1/0364414530.50431",2014-11-18T18:15:34.668,13812,822.00,73.10,72.93,"02:06:41",121.79,-0.640,1.050,121.35,1.26e+02,2,,1.97e+02,3.05e+00,1,1.17e+01
"1/0364414538.20481",2014-11-18T18:15:42.211,13812,814.00,73.49,73.31,"02:57:14",121.57,-0.640,1.060,121.07,1.29e+02,2,,2.06e+02,3.06e+00,1,1.17e+01
"1/0364414545.56067",2014-11-18T18:15:49.754,13812,806.00,73.87,73.70,"03:50:04",121.34,-0.630,1.060,120.78,1.28e+02,2,,2.03e+02,3.10e+00,1,1.15e+01
"1/0364414553.26117",2014-11-18T18:15:57.297,13812,798.00,74.25,74.08,"04:45:11",121.10,-0.630,1.060,120.50,1.29e+02,2,,2.06e+02,2.94e+00,2,1.21e+01
"1/0364414560.61769",2014-11-18T18:16:04.841,13812,790.00,74.64,74.47,"05:47:11",120.83,-0.620,1.060,120.21,1.32e+02,2,,2.16e+02,2.94e+00,1,1.21e+01
"1/0364414568.31819",2014-11-18T18:16:12.384,13812,782.00,75.02,74.86,"06:49:12",120.56,-0.610,1.060,119.93,1.32e+02,2,,2.16e+02,2.97e+00,1,1.20e+01
"1/0364414576.01869",2014-11-18T18:16:19.927,13812,775.00,75.41,75.25,"07:55:47",120.27,-0.610,1.060,119.64,1.33e+02,2,,2.19e+02,3.00e+00,1,1.19e+01
"1/0364414583.37455",2014-11-18T18:16:27.470,13812,767.00,75.79,75.64,"09:09:14",119.95,-0.600,1.060,119.35,1.37e+02,2,,2.33e+02,2.98e+00,1,1.20e+01
"1/0364414591.07505",2014-11-18T18:16:35.013,13812,759.00,76.18,76.03,"10:24:59",119.62,-0.590,1.060,119.05,1.38e+02,2,,2.36e+02,2.94e+00,2,1.21e+01
"1/0364414598.43156",2014-11-18T18:16:42.557,13812,752.00,76.57,76.42,"11:45:20",119.27,-0.590,1.060,118.76,1.35e+02,2,,2.26e+02,2.87e+00,2,1.25e+01
"1/0364414606.13206",2014-11-18T18:16:50.100,13812,744.00,76.96,76.82,"13:12:32",118.89,-0.580,1.070,118.46,1.39e+02,2,,2.40e+02,2.82e+00,1,1.27e+01
"1/0364414613.48792",2014-11-18T18:16:57.643,13812,737.00,77.35,77.21,"14:44:20",118.49,-0.570,1.070,118.16,1.37e+02,2,,2.33e+02,2.85e+00,1,1.25e+01
"1/0364414621.18842",2014-11-18T18:17:05.186,13812,730.00,77.74,77.61,"16:25:18",118.05,-0.570,1.070,117.87,1.39e+02,2,,2.40e+02,2.84e+00,1,1.26e+01
"1/0364414628.54429",2014-11-18T18:17:12.729,13812,722.00,78.13,78.00,"18:10:51",117.59,-0.560,1.070,117.56,1.39e+02,2,,2.40e+02,2.72e+00,2,1.31e+01
"1/0364414636.24544",2014-11-18T18:17:20.273,13812,715.00,78.53,78.40,"20:05:34",117.09,-0.550,1.070,117.26,1.43e+02,2,,2.54e+02,2.72e+00,2,1.31e+01
"1/0364414643.60130",2014-11-18T18:17:27.816,13812,708.00,78.92,78.79,"22:09:26",116.55,-0.550,1.070,116.96,1.42e+02,2,,2.50e+02,2.66e+00,2,1.34e+01
"1/0364414651.30180",2014-11-18T18:17:35.359,13812,701.00,79.31,79.19,"00:24:47",115.96,-0.540,1.070,116.65,1.36e+02,2,,2.29e+02,2.69e+00,1,1.33e+01
"1/0364414659.00230",2014-11-18T18:17:42.902,13812,694.00,79.70,79.59,"02:49:17",115.33,-0.530,1.070,116.34,1.23e+02,2,,1.88e+02,2.59e+00,1,1.38e+01
"1/0364414666.35816",2014-11-18T18:17:50.445,13812,687.00,80.10,79.98,"05:25:15",114.65,-0.530,1.070,116.03,1.24e+02,2,,1.91e+02,2.55e+00,2,1.40e+01
"1/0364414674.05932",2014-11-18T18:17:57.989,13812,680.00,80.49,80.38,"08:17:16",113.90,-0.520,1.070,115.72,1.33e+02,2,,2.19e+02,2.53e+00,2,1.41e+01
"1/0364414681.41518",2014-11-18T18:18:05.532,13812,673.00,80.88,80.78,"11:23:01",113.09,-0.510,1.080,115.41,1.34e+02,2,,2.23e+02,2.57e+00,1,1.39e+01
"1/0364414689.11568",2014-11-18T18:18:13.075,13812,666.00,81.27,81.17,"14:49:25",112.19,-0.510,1.080,115.09,1.20e+02,2,,1.79e+02,2.36e+00,1,1.51e+01
"1/0364414696.47154",2014-11-18T18:18:20.618,13812,659.00,81.66,81.56,"18:34:08",111.21,-0.500,1.080,114.77,1.16e+02,2,,1.67e+02,2.38e+00,2,1.50e+01
"1/0364414704.17204",2014-11-18T18:18:28.161,13812,653.00,82.05,81.96,"22:41:46",110.13,-0.490,1.080,114.46,1.32e+02,2,,2.16e+02,2.37e+00,2,1.51e+01
"1/0364414711.52855",2014-11-18T18:18:35.705,13812,646.00,82.43,82.35,"03:19:12",108.92,-0.480,1.080,114.14,1.47e+02,2,,2.68e+02,2.39e+00,2,1.49e+01
"1/0364414719.22905",2014-11-18T18:18:43.248,13812,639.00,82.82,82.73,"08:24:09",107.59,-0.480,1.080,113.81,1.48e+02,2,,2.72e+02,2.43e+00,2,1.47e+01
"1/0364414726.58491",2014-11-18T18:18:50.791,13812,633.00,83.20,83.12,"14:08:02",106.09,-0.470,1.080,113.49,1.51e+02,2,,2.83e+02,2.42e+00,1,1.47e+01
"1/0364414734.28542",2014-11-18T18:18:58.334,13812,627.00,83.57,83.50,"20:33:11",104.41,-0.460,1.080,113.17,1.43e+02,2,,2.54e+02,2.37e+00,1,1.51e+01
"1/0364414741.64128",2014-11-18T18:19:05.877,13812,620.00,83.94,83.87,"03:46:28",102.52,-0.460,1.080,112.84,1.26e+02,2,,1.97e+02,2.34e+00,2,1.53e+01
"1/0364414749.34243",2014-11-18T18:19:13.421,13812,614.00,84.31,84.24,"11:59:20",100.37,-0.450,1.080,112.51,1.31e+02,2,,2.13e+02,2.30e+00,1,1.55e+01
"1/0364414757.04293",2014-11-18T18:19:20.964,13812,608.00,84.66,84.60,"21:20:57",97.92,-0.440,1.090,112.18,1.44e+02,2,,2.57e+02,2.31e+00,2,1.55e+01
"1/0364414764.39879",2014-11-18T18:19:28.507,13812,602.00,85.01,84.95,"08:05:05",95.11,-0.440,1.090,111.85,1.45e+02,2,,2.61e+02,2.33e+00,2,1.53e+01
"1/0364414772.09929",2014-11-18T18:19:36.050,13812,596.00,85.34,85.28,"20:25:28",91.88,-0.430,1.090,111.52,1.33e+02,2,,2.19e+02,2.20e+00,2,1.62e+01
"1/0364414779.45581",2014-11-18T18:19:43.594,13812,590.00,85.66,85.60,"10:40:27",88.15,-0.420,1.090,111.19,1.50e+02,2,,2.79e+02,2.28e+00,2,1.57e+01
"1/0364414787.15631",2014-11-18T18:19:51.137,13812,584.00,85.95,85.90,"03:06:03",83.85,-0.410,1.090,110.85,1.34e+02,2,,2.23e+02,2.18e+00,2,1.64e+01
"1/0364414794.51217",2014-11-18T18:19:58.680,13812,578.00,86.22,86.18,"22:07:30",78.87,-0.410,1.090,110.51,1.28e+02,2,,2.03e+02,2.18e+00,2,1.64e+01
"1/0364414802.21267",2014-11-18T18:20:06.223,13812,572.00,86.46,86.42,"19:53:58",73.17,-0.400,1.090,110.18,1.34e+02,2,,2.23e+02,2.13e+00,2,1.67e+01
"1/0364414809.56853",2014-11-18T18:20:13.766,13812,567.00,86.66,86.62,"20:39:12",66.69,-0.390,1.090,109.84,1.33e+02,2,,2.19e+02,2.11e+00,2,1.69e+01
"1/0364414817.26968",2014-11-18T18:20:21.310,13812,561.00,86.81,86.77,"00:09:26",59.49,-0.390,1.090,109.50,1.44e+02,2,,2.57e+02,2.14e+00,2,1.67e+01
"1/0364414824.62554",2014-11-18T18:20:28.853,13812,556.00,86.90,86.86,"05:57:12",51.69,-0.380,1.090,109.15,1.47e+02,2,,2.68e+02,2.13e+00,2,1.68e+01
"1/0364414832.32604",2014-11-18T18:20:36.396,13812,550.00,86.94,86.90,"13:07:27",43.53,-0.370,1.090,108.81,1.52e+02,2,,2.87e+02,2.10e+00,2,1.70e+01
"1/0364414840.02655",2014-11-18T18:20:43.939,13812,545.00,86.91,86.87,"20:24:35",35.34,-0.360,1.090,108.46,1.56e+02,2,,3.02e+02,2.07e+00,2,1.72e+01
"1/0364414847.38241",2014-11-18T18:20:51.482,13812,540.00,86.82,86.78,"02:37:32",27.43,-0.360,1.100,108.12,1.78e+02,2,,3.93e+02,2.11e+00,2,1.69e+01
"1/0364414855.08356",2014-11-18T18:20:59.026,13812,534.00,86.67,86.63,"06:42:10",20.08,-0.350,1.100,107.77,1.72e+02,2,,3.67e+02,2.06e+00,2,1.73e+01
"1/0364414862.43942",2014-11-18T18:21:06.569,13812,529.00,86.47,86.43,"08:04:03",13.44,-0.340,1.100,107.42,1.79e+02,2,,3.97e+02,2.09e+00,2,1.71e+01
"1/0364414870.13992",2014-11-18T18:21:14.112,13812,524.00,86.23,86.18,"06:29:29",7.57,-0.340,1.100,107.07,1.86e+02,2,,4.29e+02,2.11e+00,2,1.69e+01
"1/0364414877.49578",2014-11-18T18:21:21.655,13812,519.00,85.95,85.90,"02:05:19",2.44,-0.330,1.100,106.72,1.84e+02,2,,4.20e+02,2.12e+00,2,1.68e+01
"1/0364414885.19628",2014-11-18T18:21:29.198,13812,515.00,85.64,85.59,"11:57:05",358.00,-0.320,1.100,106.36,1.83e+02,2,,4.15e+02,2.12e+00,2,1.69e+01
"1/0364414892.55280",2014-11-18T18:21:36.742,13812,510.00,85.31,85.26,"02:39:34",354.15,-0.310,1.100,106.01,1.82e+02,2,,4.11e+02,2.10e+00,1,1.70e+01
"1/0364414900.25330",2014-11-18T18:21:44.285,13812,505.00,84.96,84.90,"15:22:52",350.82,-0.310,1.100,105.65,1.75e+02,2,,3.80e+02,2.05e+00,2,1.75e+01
"1/0364414907.60916",2014-11-18T18:21:51.828,13812,500.00,84.60,84.53,"02:25:20",347.93,-0.300,1.100,105.29,1.77e+02,2,,3.89e+02,2.10e+00,2,1.70e+01
"1/0364414915.30966",2014-11-18T18:21:59.371,13812,496.00,84.22,84.15,"12:05:17",345.40,-0.290,1.100,104.94,1.81e+02,2,,4.06e+02,2.08e+00,2,1.72e+01
"1/0364414923.01016",2014-11-18T18:22:06.914,13812,491.00,83.83,83.75,"20:31:54",343.19,-0.290,1.100,104.58,1.86e+02,2,,4.29e+02,2.10e+00,2,1.70e+01
"1/0364414930.36667",2014-11-18T18:22:14.458,13812,487.00,83.43,83.35,"03:58:56",341.24,-0.280,1.100,104.22,1.96e+02,2,,4.76e+02,2.06e+00,2,1.73e+01
"1/0364414938.06717",2014-11-18T18:22:22.001,13812,483.00,83.02,82.94,"10:33:15",339.52,-0.270,1.100,103.85,2.06e+02,2,,5.26e+02,2.09e+00,2,1.71e+01
"1/0364414945.42304",2014-11-18T18:22:29.544,13812,479.00,82.61,82.52,"16:24:01",337.99,-0.260,1.100,103.49,2.09e+02,2,,5.42e+02,2.06e+00,2,1.73e+01
"1/0364414953.12354",2014-11-18T18:22:37.087,13812,475.00,82.19,82.10,"21:38:08",336.62,-0.260,1.100,103.13,2.15e+02,2,,5.73e+02,2.06e+00,2,1.73e+01
"1/0364414960.47940",2014-11-18T18:22:44.630,13812,470.00,81.77,81.67,"02:20:09",335.39,-0.250,1.100,102.76,2.24e+02,2,,6.22e+02,2.09e+00,2,1.71e+01
"1/0364414968.18055",2014-11-18T18:22:52.174,13812,467.00,81.34,81.23,"06:34:40",334.28,-0.240,1.100,102.40,2.29e+02,2,,6.50e+02,2.12e+00,1,1.68e+01
"1/0364414975.53641",2014-11-18T18:22:59.717,13812,463.00,80.90,80.80,"10:26:15",333.27,-0.230,1.110,102.03,2.34e+02,2,,6.79e+02,2.08e+00,2,1.72e+01
"1/0364414983.23691",2014-11-18T18:23:07.260,13812,459.00,80.47,80.35,"13:54:56",332.36,-0.230,1.110,101.66,2.34e+02,2,,6.79e+02,2.12e+00,2,1.68e+01
"1/0364414990.59277",2014-11-18T18:23:14.803,13812,455.00,80.03,79.91,"17:05:17",331.53,-0.220,1.110,101.29,2.39e+02,2,,7.08e+02,2.17e+00,2,1.65e+01
"1/0364414998.29327",2014-11-18T18:23:22.346,13812,452.00,79.59,79.46,"19:59:35",330.77,-0.210,1.110,100.92,2.46e+02,2,,7.50e+02,2.21e+00,2,1.62e+01
"1/0364415005.64979",2014-11-18T18:23:29.890,13812,448.00,79.14,79.01,"22:40:08",330.07,-0.200,1.110,100.55,2.51e+02,2,,7.81e+02,2.23e+00,1,1.60e+01
"1/0364415013.35029",2014-11-18T18:23:37.433,13812,445.00,78.69,78.56,"01:09:13",329.42,-0.200,1.110,100.18,2.51e+02,2,,7.81e+02,2.22e+00,2,1.61e+01
"1/0364415021.05079",2014-11-18T18:23:44.976,13812,441.00,78.24,78.11,"03:24:34",328.83,-0.190,1.110,99.80,2.34e+02,2,,6.79e+02,2.14e+00,2,1.67e+01
"1/0364415028.40665",2014-11-18T18:23:52.519,13812,438.00,77.79,77.65,"05:30:44",328.28,-0.180,1.110,99.43,2.44e+02,2,,7.38e+02,2.12e+00,2,1.69e+01
"1/0364415036.10715",2014-11-18T18:24:00.062,13812,435.00,77.34,77.19,"07:27:44",327.77,-0.170,1.110,99.06,2.28e+02,2,,6.45e+02,2.02e+00,1,1.77e+01
"1/0364415043.46366",2014-11-18T18:24:07.606,13812,432.00,76.88,76.73,"09:15:35",327.30,-0.170,1.110,98.68,2.29e+02,2,,6.50e+02,1.96e+00,2,1.82e+01
"1/0364415051.16416",2014-11-18T18:24:15.149,13812,429.00,76.43,76.27,"10:56:33",326.86,-0.160,1.110,98.30,2.25e+02,2,,6.28e+02,1.87e+00,2,1.91e+01
"1/0364415058.52003",2014-11-18T18:24:22.692,13812,426.00,75.97,75.80,"12:30:38",326.45,-0.150,1.110,97.93,2.34e+02,2,,6.79e+02,1.88e+00,2,1.90e+01
"1/0364415066.22053",2014-11-18T18:24:30.235,13812,423.00,75.51,75.34,"14:00:08",326.06,-0.140,1.110,97.55,2.38e+02,2,,7.02e+02,1.78e+00,2,2.00e+01
"1/0364415073.57639",2014-11-18T18:24:37.778,13812,421.00,75.05,74.87,"15:20:28",325.71,-0.140,1.110,97.17,2.28e+02,2,,6.45e+02,1.63e+00,2,2.19e+01
"1/0364415081.27754",2014-11-18T18:24:45.322,13812,418.00,74.58,74.41,"16:38:31",325.37,-0.130,1.110,96.79,2.34e+02,2,,6.79e+02,1.57e+00,2,2.27e+01
"1/0364415088.63340",2014-11-18T18:24:52.865,13812,416.00,74.12,73.94,"17:51:59",325.05,-0.120,1.110,96.41,2.64e+02,2,,8.64e+02,1.53e+00,2,2.33e+01
"1/0364415096.33390",2014-11-18T18:25:00.408,13812,413.00,73.66,73.47,"19:00:51",324.75,-0.110,1.110,96.03,2.32e+02,2,,6.67e+02,1.42e+00,3,2.51e+01
"1/0364415104.03440",2014-11-18T18:25:07.951,13812,411.00,73.19,73.00,"20:05:09",324.47,-0.110,1.110,95.65,2.48e+02,2,,7.63e+02,1.32e+00,3,2.70e+01
"1/0364415111.39026",2014-11-18T18:25:15.494,13812,409.00,72.72,72.52,"21:04:51",324.21,-0.100,1.110,95.26,3.11e+02,2,,1.20e+03,1.28e+00,2,2.80e+01
"1/0364415119.09142",2014-11-18T18:25:23.038,13812,407.00,72.25,72.05,"22:02:16",323.96,-0.090,1.110,94.88,2.79e+02,2,,9.65e+02,1.22e+00,3,2.92e+01
"1/0364415126.44728",2014-11-18T18:25:30.581,13812,404.00,71.79,71.58,"22:57:24",323.72,-0.080,1.110,94.50,2.68e+02,2,,8.91e+02,1.15e+00,3,3.11e+01
"1/0364415134.14778",2014-11-18T18:25:38.124,13812,403.00,71.32,71.10,"23:47:57",323.50,-0.080,1.110,94.11,2.92e+02,2,,1.06e+03,1.11e+00,3,3.22e+01
"1/0364415141.50364",2014-11-18T18:25:45.667,13812,401.00,70.84,70.63,"00:36:12",323.29,-0.070,1.110,93.73,3.06e+02,2,,1.16e+03,1.08e+00,3,3.30e+01